This is the latest recevied weather packets stored in our database for station/object WD4ITN. If no packets are shown the sender has not sent any weather packets the latest 10 day(s).
| Time | Temp. | Humidity | Pressure | Rain* | Wind** | Luminosity | Snow |
|---|---|---|---|---|---|---|---|
| 1778043509 | 14.44° C | 65% | 1010.2 hPa | 0 mm | - | - | - |
| 1778043209 | 13.89° C | 68% | 1010.2 hPa | 0 mm | - | - | - |
| 1778043060 | 13.89° C | 69% | 1010.3 hPa | 0 mm | - | - | - |
| 1778042609 | 12.78° C | 72% | 1010.3 hPa | 0 mm | - | - | - |
| 1778042310 | 12.22° C | 73% | 1010.4 hPa | 0 mm | - | - | - |
| 1778042010 | 12.22° C | 72% | 1010.5 hPa | 0 mm | - | - | - |
| 1778041701 | 12.22° C | 71% | 1010.3 hPa | 0 mm | - | - | - |
| 1778041402 | 12.78° C | 70% | 1010.2 hPa | 0 mm | - | - | - |
| 1778041106 | 12.78° C | 69% | 1010.2 hPa | 0 mm | - | - | - |
| 1778040808 | 12.78° C | 70% | 1010.2 hPa | 0 mm | - | - | - |
| 1778040508 | 12.22° C | 70% | 1010.1 hPa | 0 mm | - | - | - |
| 1778040205 | 12.22° C | 69% | 1010.1 hPa | 0 mm | - | - | - |
| 1778039898 | 12.78° C | 67% | 1010.2 hPa | 0 mm | - | - | - |
| 1778039595 | 13.33° C | 66% | 1010.3 hPa | 0 mm | - | - | - |
| 1778039293 | 13.33° C | 65% | 1010.3 hPa | 0 mm | - | - | - |
| 1778039019 | 13.33° C | 66% | 1010.2 hPa | 0 mm | - | - | - |
| 1778038712 | 13.33° C | 66% | 1010.3 hPa | 0 mm | - | - | - |
| 1778038415 | 13.33° C | 66% | 1010.3 hPa | 0 mm | - | - | - |
| 1778038110 | 13.33° C | 65% | 1010.3 hPa | 0 mm | - | - | - |
| 1778037809 | 13.89° C | 64% | 1010.3 hPa | 0 mm | - | - | - |
| 1778037508 | 13.89° C | 64% | 1010.3 hPa | 0 mm | - | - | - |
| 1778037200 | 13.89° C | 64% | 1010.3 hPa | 0 mm | - | - | - |
| 1778036896 | 14.44° C | 63% | 1010.3 hPa | 0 mm | - | - | - |
| 1778036615 | 14.44° C | 62% | 1010.4 hPa | 0 mm | - | - | - |
| 1778036306 | 15° C | 61% | 1010.4 hPa | 0 mm | - | - | - |
* Rain since midnight (hover to see other rain measurements)
** Current wind speed in m/s (hover to see current wind gust speed)